Regional Weather Roundup
Issued by NWS

Home | Current Version | Previous Version | Text Only | Print | Product List | Glossary On
Versions: 1 2 3 4 5 6 7 8 9 10 11 12 13 14 15 16 17 18 19 20 21 22 23 24 25 26 27 28 29 30 31 32 33 34 35 36 37 38 39 40 41 42 43 44 45 46 47 48 49 50
000
ASUS44 KBMX 291810
RWRAL

ALABAMA REGIONAL WEATHER ROUNDUP
NATIONAL WEATHER SERVICE BIRMINGHAM AL
100 PM CDT WED MAR 29 2017

NOTE: "FAIR" INDICATES FEW OR NO CLOUDS BELOW 12,000 FEET
WITH NO SIGNIFICANT WEATHER AND/OR OBSTRUCTIONS TO VISIBILITY.

THE REMARK "TC" DENOTES TEMPERATURE IN DEGREES CELSIUS.

ALZ001>011-014-016>018-020-291900-
NORTH ALABAMA

CITY           SKY/WX    TMP DP  RH WIND       PRES   REMARKS
MUSCLE SHOALS  MOSUNNY   78  61  55 CALM      30.02F
6HR MIN TEMP:  57; 6HR MAX TEMP:  78;

HUNTSVILLE     MOSUNNY   79  62  56 CALM      30.03F
6HR MIN TEMP:  57; 6HR MAX TEMP:  79;

DECATUR        SUNNY     79  61  53 CALM      30.03F
6HR MIN TEMP:  55; 6HR MAX TEMP:  79;

HALEYVILLE     PTSUNNY   78  63  59 S9        30.04F
6HR MIN TEMP:  59; 6HR MAX TEMP:  79;

GADSDEN        MOSUNNY   80  63  55 VRB3      30.04F
6HR MIN TEMP:  56; 6HR MAX TEMP:  80;

$$

ALZ012-013-022-023-030>036-040>044-291900-
WEST CENTRAL ALABAMA

CITY           SKY/WX    TMP DP  RH WIND       PRES   REMARKS
TUSCALOOSA     MOSUNNY   78  62  57 SW8       30.03F
6HR MIN TEMP:  63; 6HR MAX TEMP:  78;

$$

ALZ015-024>027-033>036-040>044-291900-
CENTRAL ALABAMA

CITY           SKY/WX    TMP DP  RH WIND       PRES   REMARKS
BIRMINGHAM     MOSUNNY   81  61  50 S9        30.05F
6HR MIN TEMP:  63; 6HR MAX TEMP:  81;

MONTGOMERY     PTSUNNY   81  61  50 SW6       30.04S
6HR MIN TEMP:  66; 6HR MAX TEMP:  82;

SHELBY CO ARPT MOSUNNY   78  64  61 VRB6      30.04F
6HR MIN TEMP:  62; 6HR MAX TEMP:  78;

MAXWELL AFB    PTSUNNY   79  62  55 SW3       30.03S
6HR MIN TEMP:  65; 6HR MAX TEMP:  79; 6HR PCP: TRACE;

GREENVILLE     FAIR      81  56  42 VRB7      30.03S
6HR MIN TEMP:  66; 6HR MAX TEMP:  81;

$$

ALZ019-021-028-029-037-038-045>048-291900-
EAST CENTRAL ALABAMA

CITY           SKY/WX    TMP DP  RH WIND       PRES   REMARKS
ANNISTON       MOSUNNY   80  61  52 W5        30.03S
6HR MIN TEMP:  59; 6HR MAX TEMP:  81;

ALEXANDER CITY MOSUNNY   79  60  52 SW8       30.04S
6HR MIN TEMP:  57; 6HR MAX TEMP:  80;

AUBURN         SUNNY     80  62  54 S7        30.04F
6HR MIN TEMP:  62; 6HR MAX TEMP:  80;

$$

ALZ051>064-291900-
SOUTHWEST ALABAMA

CITY           SKY/WX    TMP DP  RH WIND       PRES   REMARKS
MOBILE         MOSUNNY   80  61  52 S13       30.04F
6HR MIN TEMP:  65; 6HR MAX TEMP:  80;

BROOKLEY FIELD MOSUNNY   78  68  71 SE12      30.05F
6HR MIN TEMP:  70; 6HR MAX TEMP:  79;

EVERGREEN      MOSUNNY   82  58  43 S12G20    30.04S
6HR MIN TEMP:  66; 6HR MAX TEMP:  82;

$$

ALZ049-050-065>069-291900-
SOUTHEAST ALABAMA

CITY           SKY/WX    TMP DP  RH WIND       PRES   REMARKS
DOTHAN         MOSUNNY   82  60  47 S12       30.06F
6HR MIN TEMP:  67; 6HR MAX TEMP:  82;

OZARK          MOSUNNY   81  60  49 S10       30.02S
6HR MIN TEMP:  67; 6HR MAX TEMP:  81;

TROY           MOSUNNY   80  60  50 SW10      30.05R
6HR MIN TEMP:  66; 6HR MAX TEMP:  81;

EUFAULA        NOT AVBL
$$



USA.gov is the U.S. government's official web portal to all federal, state and local government web resources and services.